• In Germany
  • List of Countries
  • For 7 days
  • Water Temperature
  • Satellite Maps
  • Weather Map
  • Weather Widgets
  • user-avatar
    Login

    Hourly Weather Lyubestovo

    Today, 16 July, Monday

    Time Temperature Precipitation Wind Pressure Humidity
    00:00 +18°C° 0.3 mm 2 mps 738 mmHg 96%
    01:00 +18°C° 0.3 mm 2 mps 738 mmHg 96%
    02:00 +19°C° 0 mm 1 mps 738 mmHg 97%
    03:00 +18°C° 0.8 mm 2 mps 738 mmHg 97%
    04:00 +18°C° 0.8 mm 2 mps 738 mmHg 97%
    05:00 +18°C° 0.8 mm 3 mps 738 mmHg 97%
    06:00 +19°C° 0.6 mm 3 mps 738 mmHg 96%
    07:00 +20°C° 0.6 mm 3 mps 738 mmHg 94%
    08:00 +21°C° 0 mm 4 mps 738 mmHg 92%
    09:00 +22°C° 1.2 mm 4 mps 738 mmHg 87%
    10:00 +25°C° 1.2 mm 4 mps 738 mmHg 83%
    11:00 +26°C° 1.2 mm 4 mps 737 mmHg 78%
    12:00 +26°C° 0.6 mm 4 mps 737 mmHg 80%
    13:00 +26°C° 0.6 mm 4 mps 737 mmHg 80%
    14:00 +27°C° 0.6 mm 4 mps 737 mmHg 79%
    15:00 +26°C° 0.8 mm 4 mps 737 mmHg 82%
    16:00 +26°C° 0.8 mm 4 mps 737 mmHg 84%
    17:00 +25°C° 0.8 mm 4 mps 737 mmHg 87%
    18:00 +24°C° 0.9 mm 3 mps 737 mmHg 88%
    19:00 +22°C° 0.9 mm 3 mps 736 mmHg 90%
    20:00 +21°C° 0.9 mm 3 mps 736 mmHg 91%
    21:00 +21°C° 0.3 mm 3 mps 736 mmHg 92%
    22:00 +20°C° 0.3 mm 3 mps 736 mmHg 93%
    23:00 +20°C° 0.3 mm 3 mps 736 mmHg 95%

    Tomorrow, 17 July, Tuesday

    Time Temperature Precipitation Wind Pressure Humidity
    00:00 +20°C° 0.2 mm 3 mps 736 mmHg 95%
    01:00 +20°C° 0.2 mm 4 mps 736 mmHg 96%
    02:00 +20°C° 0.2 mm 4 mps 736 mmHg 96%
    03:00 +20°C° 0.3 mm 4 mps 736 mmHg 96%
    04:00 +20°C° 0.3 mm 4 mps 735 mmHg 96%
    05:00 +20°C° 0.3 mm 4 mps 735 mmHg 96%
    06:00 +21°C° 0.2 mm 5 mps 735 mmHg 93%
    07:00 +22°C° 0.2 mm 5 mps 735 mmHg 90%
    08:00 +23°C° 0.2 mm 5 mps 735 mmHg 87%
    09:00 +25°C° 1.2 mm 5 mps 735 mmHg 85%
    10:00 +26°C° 1.2 mm 5 mps 735 mmHg 82%
    11:00 +27°C° 1.2 mm 5 mps 735 mmHg 79%
    12:00 +27°C° 0.7 mm 5 mps 735 mmHg 80%
    13:00 +27°C° 0.7 mm 5 mps 735 mmHg 80%
    14:00 +27°C° 0.7 mm 5 mps 735 mmHg 81%
    15:00 +27°C° 0.7 mm 4 mps 735 mmHg 83%
    16:00 +27°C° 0.7 mm 4 mps 734 mmHg 85%
    17:00 +26°C° 0.7 mm 4 mps 734 mmHg 87%
    18:00 +25°C° 0.2 mm 4 mps 734 mmHg 89%
    19:00 +23°C° 0.2 mm 4 mps 734 mmHg 91%
    20:00 +22°C° 0.2 mm 3 mps 734 mmHg 93%
    21:00 +22°C° 0 mm 3 mps 734 mmHg 94%
    22:00 +21°C° 0 mm 3 mps 734 mmHg 95%
    23:00 +21°C° 0 mm 3 mps 734 mmHg 96%

    Day after tomorrow, 18 July, Wednesday

    Time Temperature Precipitation Wind Pressure Humidity
    00:00 +20°C° 0 mm 3 mps 734 mmHg 96%
    01:00 +20°C° 0 mm 3 mps 734 mmHg 97%
    02:00 +20°C° 0 mm 3 mps 734 mmHg 97%
    03:00 +20°C° 0 mm 3 mps 734 mmHg 97%
    04:00 +20°C° 0 mm 4 mps 734 mmHg 97%
    05:00 +20°C° 0 mm 4 mps 734 mmHg 97%
    06:00 +20°C° 0 mm 4 mps 734 mmHg 96%
    07:00 +21°C° 0 mm 4 mps 734 mmHg 94%
    08:00 +21°C° 0 mm 4 mps 734 mmHg 93%
    09:00 +21°C° 0 mm 4 mps 734 mmHg 91%
    10:00 +22°C° 0 mm 4 mps 734 mmHg 88%
    11:00 +22°C° 0 mm 4 mps 734 mmHg 86%
    12:00 +23°C° 0.1 mm 5 mps 734 mmHg 83%
    13:00 +25°C° 0.1 mm 5 mps 734 mmHg 80%
    14:00 +25°C° 0.1 mm 5 mps 734 mmHg 77%
    15:00 +25°C° 0.4 mm 4 mps 734 mmHg 80%
    16:00 +25°C° 0.4 mm 4 mps 734 mmHg 82%
    17:00 +25°C° 0.4 mm 4 mps 734 mmHg 85%
    18:00 +22°C° 0.1 mm 4 mps 734 mmHg 88%
    19:00 +21°C° 0.1 mm 3 mps 734 mmHg 91%
    20:00 +20°C° 0.1 mm 3 mps 734 mmHg 94%
    21:00 +20°C° 0 mm 3 mps 734 mmHg 95%
    22:00 +19°C° 0 mm 2 mps 734 mmHg 96%
    23:00 +19°C° 0 mm 2 mps 734 mmHg 96%

    19 July, Thursday

    Time Temperature Precipitation Wind Pressure Humidity
    00:00 +18°C° 0 mm 2 mps 734 mmHg 97%
    01:00 +18°C° 0 mm 2 mps 734 mmHg 97%
    02:00 +18°C° 0 mm 2 mps 734 mmHg 97%
    03:00 +18°C° 0 mm 2 mps 734 mmHg 97%
    04:00 +18°C° 0 mm 2 mps 734 mmHg 97%
    05:00 +19°C° 0 mm 2 mps 734 mmHg 97%
    06:00 +19°C° 0.1 mm 3 mps 734 mmHg 94%
    07:00 +20°C° 0.1 mm 3 mps 734 mmHg 92%
    08:00 +21°C° 0.1 mm 3 mps 734 mmHg 89%
    09:00 +21°C° 0.6 mm 3 mps 734 mmHg 88%
    10:00 +22°C° 0.6 mm 3 mps 734 mmHg 86%
    11:00 +24°C° 0.6 mm 3 mps 734 mmHg 85%
    12:00 +24°C° 0.8 mm 3 mps 734 mmHg 82%
    13:00 +25°C° 0.8 mm 3 mps 734 mmHg 80%
    14:00 +25°C° 0.8 mm 3 mps 733 mmHg 78%
    15:00 +25°C° 1 mm 3 mps 733 mmHg 80%
    16:00 +25°C° 1 mm 3 mps 733 mmHg 82%
    17:00 +25°C° 1 mm 3 mps 733 mmHg 84%
    18:00 +24°C° 0.6 mm 3 mps 734 mmHg 88%
    19:00 +21°C° 0.6 mm 2 mps 734 mmHg 92%
    20:00 +20°C° 0.6 mm 2 mps 734 mmHg 95%
    21:00 +20°C° 0.1 mm 2 mps 734 mmHg 96%
    22:00 +19°C° 0.1 mm 2 mps 734 mmHg 97%
    23:00 +18°C° 0.1 mm 2 mps 734 mmHg 97%

    20 July, Friday

    Time Temperature Precipitation Wind Pressure Humidity
    00:00 +18°C° 0 mm 2 mps 734 mmHg 97%
    01:00 +19°C° 0 mm 1 mps 734 mmHg 98%
    02:00 +19°C° 0 mm 1 mps 734 mmHg 98%
    03:00 +19°C° 0 mm 1 mps 734 mmHg 98%
    04:00 +19°C° 0 mm 1 mps 734 mmHg 98%
    05:00 +19°C° 0 mm 1 mps 734 mmHg 98%
    06:00 +20°C° 0 mm 1 mps 734 mmHg 96%
    07:00 +21°C° 0 mm 1 mps 735 mmHg 93%
    08:00 +23°C° 0 mm 1 mps 735 mmHg 90%
    09:00 +23°C° 0.4 mm 1 mps 735 mmHg 88%
    10:00 +24°C° 0.4 mm 1 mps 735 mmHg 85%
    11:00 +25°C° 0.4 mm 1 mps 735 mmHg 82%
    12:00 +26°C° 0.7 mm 1 mps 735 mmHg 80%
    13:00 +26°C° 0.7 mm 1 mps 735 mmHg 79%
    14:00 +27°C° 0.7 mm 1 mps 735 mmHg 77%
    15:00 +27°C° 0.3 mm 1 mps 735 mmHg 76%
    16:00 +27°C° 0.3 mm 1 mps 735 mmHg 76%
    17:00 +27°C° 0.3 mm 1 mps 735 mmHg 75%
    18:00 +26°C° 0.4 mm 1 mps 735 mmHg 80%
    19:00 +24°C° 0.4 mm 1 mps 735 mmHg 85%
    20:00 +21°C° 0.4 mm 0 mps 735 mmHg 90%
    21:00 +20°C° 0.4 mm 0 mps 735 mmHg 92%
    22:00 +22°C° 0.4 mm 1 mps 735 mmHg 93%
    23:00 +21°C° 0.4 mm 1 mps 735 mmHg 94%

    21 July, Saturday

    Time Temperature Precipitation Wind Pressure Humidity
    00:00 +21°C° 0 mm 1 mps 735 mmHg 94%
    01:00 +20°C° 0 mm 1 mps 735 mmHg 95%
    02:00 +20°C° 0 mm 1 mps 735 mmHg 95%
    03:00 +20°C° 0.2 mm 1 mps 735 mmHg 96%
    04:00 +20°C° 0.2 mm 1 mps 735 mmHg 96%
    05:00 +20°C° 0.2 mm 1 mps 735 mmHg 97%
    06:00 +21°C° 0.3 mm 1 mps 735 mmHg 94%
    07:00 +23°C° 0.3 mm 1 mps 735 mmHg 92%
    08:00 +24°C° 0.3 mm 1 mps 736 mmHg 89%
    09:00 +25°C° 0.4 mm 1 mps 736 mmHg 85%
    10:00 +26°C° 0.4 mm 1 mps 735 mmHg 80%
    11:00 +27°C° 0.4 mm 1 mps 735 mmHg 76%
    12:00 +27°C° 1.2 mm 1 mps 735 mmHg 75%
    13:00 +28°C° 1.2 mm 1 mps 735 mmHg 74%
    14:00 +28°C° 1.2 mm 1 mps 735 mmHg 73%
    15:00 +28°C° 0.4 mm 1 mps 735 mmHg 74%
    16:00 +27°C° 0.4 mm 1 mps 735 mmHg 74%
    17:00 +27°C° 0.4 mm 1 mps 735 mmHg 75%
    18:00 +26°C° 1.2 mm 1 mps 735 mmHg 79%
    19:00 +24°C° 1.2 mm 1 mps 735 mmHg 83%
    20:00 +21°C° 1.2 mm 0 mps 735 mmHg 87%
    21:00 +20°C° 0.4 mm 0 mps 735 mmHg 89%
    22:00 +22°C° 0.4 mm 1 mps 735 mmHg 90%
    23:00 +21°C° 0.4 mm 1 mps 735 mmHg 91%
    Show more